Temp
-15 -15 -16 -15 -15 -15 -15 -15 -15 -15 -15 -15 -15 -15 -15 -14 -14 -14 -15 -15 -15 -15 -15 -14 -14 -15 -15 -15 -15 -15 -15 -15 -15 -15 -15 -15 -15 -15 -15 -15 -15 -15 -15 -15 -15 -15 -14 -14 -14 -14 -14 -14 -15 -15 -15 -15 -15 -15 -15 -15 -14 -14 -15
-15 -16 -16 -16 -16 -16 -16 -16 -15 -15 -15 -15 -15 -15 -15 -15 -15 -15 -15 -15 -15 -15 -15 -15 -15 -15 -15 -15 -15 -15 -15 -15 -15 -15 -15 -15 -15 -15 -15 -15 -15 -15 -15 -15 -15 -15 -15 -15 -15 -14 -14 -14 -14 -14 -15 -15 -15 -15 -15 -15 -15 -14 -14
-16 -16 -16 -16 -16 -16 -16 -16 -16 -15 -15 -15 -15 -15 -15 -15 -15 -15 -15 -15 -15 -15 -15 -15 -15 -15 -15 -15 -15 -15 -15 -15 -15 -15 -15 -15 -15 -15 -15 -15 -15 -15 -15 -15 -15 -15 -15 -15 -15 -15 -15 -15 -15 -14 -14 -14 -14 -15 -15 -15 -15 -14 -14
-16 -16 -16 -16 -16 -16 -16 -16 -16 -16 -16 -15 -15 -15 -15 -15 -15 -15 -15 -15 -15 -15 -15 -15 -15 -15 -15 -15 -15 -15 -15 -15 -15 -15 -15 -15 -15 -15 -15 -15 -15 -15 -15 -15 -15 -15 -15 -15 -15 -15 -15 -15 -15 -15 -14 -14 -14 -14 -14 -14 -14 -14 -14
-16 -16 -16 -17 -17 -16 -16 -16 -16 -16 -16 -16 -16 -15 -15 -15 -15 -15 -15 -15 -15 -15 -15 -15 -15 -15 -15 -15 -15 -15 -15 -15 -15 -15 -15 -15 -15 -15 -15 -15 -15 -15 -16 -16 -16 -15 -15 -15 -15 -15 -15 -15 -15 -15 -15 -15 -14 -14 -14 -14 -15 -15 -14
-16 -16 -16 -17 -17 -17 -17 -17 -17 -16 -16 -16 -16 -16 -15 -15 -15 -15 -15 -15 -15 -15 -15 -15 -15 -15 -15 -15 -15 -15 -15 -15 -15 -15 -15 -15 -15 -15 -15 -16 -16 -16 -16 -16 -16 -16 -16 -16 -16 -16 -16 -15 -15 -15 -15 -15 -15 -15 -15 -15 -15 -15 -15
-16 -16 -16 -17 -17 -17 -17 -17 -17 -17 -17 -16 -16 -16 -16 -16 -16 -15 -15 -15 -15 -15 -15 -15 -15 -15 -15 -15 -15 -15 -15 -15 -15 -15 -15 -15 -15 -15 -15 -16 -16 -16 -16 -16 -16 -16 -16 -16 -16 -16 -16 -16 -16 -16 -16 -16 -15 -15 -15 -15 -15 -15 -15
-16 -16 -16 -16 -16 -17 -17 -17 -17 -17 -17 -17 -16 -16 -16 -16 -16 -16 -16 -16 -16 -16 -15 -15 -15 -15 -15 -15 -15 -15 -15 -15 -15 -15 -15 -15 -15 -15 -16 -16 -16 -16 -16 -16 -16 -16 -16 -16 -16 -16 -16 -16 -16 -16 -16 -16 -16 -16 -16 -15 -15 -15 -15
-16 -16 -16 -16 -16 -17 -17 -17 -17 -17 -17 -17 -17 -16 -16 -16 -16 -16 -16 -16 -16 -16 -16 -16 -16 -15 -15 -15 -15 -15 -15 -15 -15 -15 -15 -16 -16 -16 -16 -16 -16 -16 -16 -16 -16 -16 -16 -16 -16 -16 -16 -16 -16 -16 -16 -16 -16 -16 -16 -16 -16 -16 -16
-16 -16 -16 -16 -16 -16 -17 -17 -17 -17 -17 -17 -17 -17 -16 -16 -16 -16 -16 -16 -16 -16 -16 -16 -16 -16 -16 -16 -16 -16 -16 -16 -16 -16 -16 -16 -16 -16 -16 -16 -16 -16 -16 -16 -16 -16 -16 -17 -17 -17 -17 -17 -17 -17 -17 -16 -16 -17 -17 -16 -16 -17 -17
-16 -16 -16 -16 -16 -16 -17 -17 -17 -17 -17 -17 -17 -17 -17 -17 -17 -16 -16 -16 -16 -16 -16 -16 -16 -16 -16 -16 -16 -16 -16 -16 -16 -16 -16 -16 -16 -16 -16 -16 -16 -16 -16 -16 -16 -16 -16 -17 -17 -17 -17 -17 -17 -17 -17 -17 -17 -17 -17 -17 -17 -17 -17
-17 -17 -16 -16 -16 -16 -17 -17 -17 -17 -17 -17 -17 -17 -17 -17 -17 -17 -17 -16 -16 -16 -16 -16 -16 -16 -16 -16 -16 -16 -16 -16 -16 -16 -16 -16 -16 -16 -16 -16 -17 -17 -17 -17 -17 -17 -17 -17 -17 -17 -17 -17 -17 -17 -17 -17 -17 -17 -17 -17 -17 -17 -17
-17 -16 -16 -16 -16 -16 -16 -17 -17 -17 -17 -17 -17 -17 -17 -17 -17 -17 -17 -17 -17 -17 -17 -17 -17 -16 -16 -16 -16 -16 -16 -16 -16 -16 -16 -16 -17 -17 -17 -17 -17 -17 -17 -17 -17 -17 -17 -17 -17 -17 -17 -17 -17 -17 -17 -17 -17 -17 -17 -17 -17 -17 -17
-17 -16 -16 -16 -16 -16 -16 -16 -17 -17 -17 -17 -17 -18 -18 -17 -17 -17 -17 -17 -17 -17 -17 -17 -17 -17 -17 -17 -17 -17 -17 -17 -17 -17 -17 -17 -17 -17 -17 -17 -17 -17 -18 -18 -17 -17 -17 -17 -17 -17 -17 -17 -17 -17 -17 -18 -18 -18 -18 -18 -18 -17 -17
-17 -17 -17 -17 -17 -17 -17 -17 -17 -17 -17 -17 -18 -18 -18 -18 -18 -17 -17 -17 -17 -17 -17 -17 -17 -17 -17 -17 -17 -17 -17 -17 -17 -17 -17 -17 -17 -18 -18 -18 -18 -18 -18 -18 -18 -18 -18 -18 -18 -17 -17 -17 -17 -17 -17 -18 -18 -18 -18 -18 -18 -18 -18
-17 -17 -17 -17 -17 -17 -17 -17 -17 -17 -17 -17 -17 -18 -18 -18 -18 -18 -18 -18 -18 -18 -18 -18 -18 -18 -18 -18 -18 -18 -18 -18 -18 -18 -18 -18 -18 -18 -18 -18 -18 -18 -18 -18 -18 -18 -18 -18 -18 -18 -18 -18 -18 -18 -18 -18 -18 -18 -18 -18 -18 -18 -18
-17 -17 -17 -17 -17 -17 -17 -17 -17 -17 -17 -17 -17 -17 -18 -18 -18 -18 -18 -18 -18 -18 -18 -18 -18 -18 -18 -18 -18 -18 -18 -18 -18 -18 -18 -18 -18 -18 -18 -18 -18 -18 -18 -18 -18 -18 -18 -18 -18 -18 -18 -18 -18 -18 -18 -18 -18 -18 -18 -18 -18 -18 -18
-18 -18 -17 -17 -17 -17 -17 -17 -17 -17 -17 -17 -17 -17 -18 -18 -18 -18 -18 -18 -18 -18 -18 -18 -18 -18 -18 -18 -18 -18 -18 -18 -18 -18 -18 -18 -18 -18 -18 -18 -18 -18 -18 -18 -18 -17 -18 -18 -18 -18 -18 -18 -18 -18 -18 -18 -18 -18 -18 -18 -18 -18 -18
-18 -18 -18 -18 -18 -18 -18 -18 -18 -17 -17 -18 -18 -18 -18 -18 -18 -18 -18 -17 -17 -18 -18 -18 -18 -18 -18 -18 -18 -18 -18 -18 -18 -18 -18 -18 -18 -18 -18 -18 -18 -18 -18 -18 -18 -18 -18 -18 -18 -18 -18 -18 -18 -18 -18 -18 -18 -18 -18 -18 -18 -18 -18
-18 -18 -18 -18 -18 -18 -18 -18 -18 -18 -18 -18 -18 -18 -18 -18 -18 -18 -18 -17 -17 -18 -18 -18 -18 -18 -18 -18 -18 -18 -18 -18 -18 -18 -18 -18 -18 -18 -18 -18 -18 -18 -18 -18 -18 -18 -18 -18 -18 -18 -18 -18 -18 -18 -18 -18 -18 -18 -18 -18 -18 -18 -18
-18 -18 -18 -18 -18 -18 -18 -18 -18 -18 -18 -18 -18 -18 -18 -18 -18 -18 -18 -18 -18 -18 -18 -18 -18 -18 -18 -18 -18 -18 -18 -18 -18 -18 -18 -18 -18 -18 -18 -18 -18 -18 -18 -18 -18 -18 -18 -18 -18 -18 -18 -18 -18 -18 -18 -18 -18 -18 -18 -18 -18 -18 -18
-18 -18 -18 -18 -18 -18 -18 -18 -18 -18 -18 -18 -18 -18 -18 -18 -18 -18 -18 -18 -18 -18 -18 -18 -18 -18 -18 -18 -19 -19 -19 -19 -19 -19 -19 -19 -19 -19 -19 -18 -18 -18 -18 -18 -18 -18 -18 -18 -18 -18 -18 -18 -18 -18 -18 -18 -18 -18 -18 -18 -18 -18 -18
-18 -18 -18 -18 -18 -18 -18 -18 -18 -18 -18 -18 -18 -18 -18 -18 -18 -18 -18 -18 -18 -18 -18 -18 -18 -18 -18 -18 -19 -19 -19 -19 -19 -19 -19 -19 -19 -19 -19 -19 -18 -18 -18 -18 -18 -18 -18 -18 -18 -18 -18 -18 -18 -18 -18 -18 -18 -18 -18 -18 -18 -18 -18
-18 -18 -18 -19 -18 -18 -18 -18 -18 -18 -18 -18 -18 -18 -18 -18 -18 -18 -18 -18 -18 -18 -18 -18 -18 -18 -19 -19 -19 -19 -19 -19 -19 -19 -19 -19 -19 -19 -19 -19 -18 -18 -18 -18 -18 -18 -18 -18 -18 -18 -18 -18 -18 -18 -18 -18 -18 -18 -18 -18 -18 -18 -18
-18 -18 -18 -18 -18 -18 -18 -18 -18 -18 -18 -18 -18 -18 -18 -19 -18 -18 -18 -18 -18 -19 -19 -19 -19 -19 -19 -19 -19 -19 -19 -19 -19 -19 -19 -19 -19 -19 -19 -19 -19 -19 -18 -18 -18 -18 -18 -18 -18 -18 -18 -18 -18 -18 -18 -18 -18 -18 -18 -18 -18 -18 -18
-18 -18 -18 -18 -18 -18 -18 -18 -18 -18 -18 -18 -18 -18 -18 -19 -19 -19 -19 -18 -18 -18 -19 -19 -19 -19 -19 -19 -19 -19 -19 -19 -19 -19 -19 -19 -19 -19 -19 -19 -19 -19 -19 -19 -19 -19 -19 -18 -18 -18 -18 -18 -18 -18 -18 -18 -18 -18 -18 -18 -18 -18 -18
-18 -18 -18 -18 -18 -18 -18 -18 -18 -18 -18 -18 -18 -19 -19 -19 -19 -19 -19 -19 -19 -19 -19 -19 -19 -19 -19 -19 -19 -19 -19 -19 -19 -20 -20 -20 -20 -19 -19 -19 -19 -19 -19 -19 -19 -19 -19 -19 -19 -19 -18 -18 -18 -18 -18 -18 -18 -18 -18 -18 -18 -18 -18
-19 -19 -19 -18 -18 -18 -18 -18 -19 -19 -19 -19 -19 -19 -19 -19 -19 -19 -20 -20 -19 -19 -19 -19 -19 -19 -19 -19 -20 -20 -20 -20 -20 -20 -20 -20 -20 -20 -20 -20 -20 -20 -20 -19 -19 -19 -19 -19 -19 -19 -19 -19 -19 -18 -18 -18 -18 -18 -18 -18 -18 -18 -18
-19 -19 -19 -19 -19 -19 -19 -19 -19 -19 -19 -19 -19 -19 -19 -20 -20 -20 -20 -20 -20 -20 -20 -19 -19 -19 -19 -20 -20 -20 -21 -21 -21 -20 -20 -20 -20 -20 -20 -20 -20 -20 -20 -20 -20 -20 -20 -19 -19 -19 -19 -19 -19 -19 -19 -19 -19 -19 -19 -19 -19 -19 -19
-20 -20 -20 -20 -20 -20 -20 -20 -20 -19 -19 -19 -19 -19 -20 -20 -20 -20 -20 -20 -20 -20 -20 -20 -20 -20 -20 -20 -20 -20 -21 -21 -21 -21 -21 -21 -21 -20 -20 -20 -20 -20 -20 -20 -20 -20 -20 -20 -20 -20 -20 -20 -19 -19 -19 -19 -19 -19 -19 -19 -19 -19 -19
-21 -21 -21 -20 -20 -20 -20 -20 -20 -20 -20 -20 -20 -20 -20 -20 -20 -21 -21 -20 -21 -21 -21 -20 -21 -21 -21 -21 -21 -21 -21 -21 -21 -21 -21 -21 -21 -20 -20 -20 -20 -20 -20 -20 -20 -20 -20 -20 -20 -20 -20 -20 -20 -20 -20 -20 -19 -19 -19 -19 -19 -19 -19
-21 -21 -21 -21 -21 -21 -21 -21 -20 -20 -20 -20 -20 -20 -20 -20 -21 -21 -20 -20 -21 -21 -21 -21 -21 -21 -21 -21 -21 -21 -21 -21 -21 -21 -21 -21 -21 -21 -21 -20 -20 -20 -21 -21 -21 -21 -20 -20 -20 -20 -20 -20 -20 -20 -20 -20 -20 -20 -20 -20 -20 -20 -20
-21 -21 -21 -21 -21 -21 -21 -21 -21 -21 -21 -21 -21 -21 -21 -21 -21 -21 -21 -21 -21 -21 -21 -21 -21 -21 -21 -21 -21 -21 -21 -21 -21 -21 -21 -21 -21 -21 -21 -21 -21 -21 -21 -21 -21 -21 -21 -21 -20 -20 -20 -20 -20 -20 -20 -20 -20 -20 -20 -20 -20 -20 -20
-21 -21 -21 -21 -22 -22 -22 -22 -21 -21 -21 -21 -21 -21 -21 -21 -21 -21 -21 -21 -21 -21 -21 -22 -22 -21 -21 -21 -21 -21 -21 -21 -21 -21 -21 -21 -21 -21 -21 -21 -21 -21 -21 -21 -21 -21 -21 -21 -21 -21 -21 -21 -21 -21 -21 -20 -20 -20 -20 -20 -20 -20 -20
-21 -21 -21 -21 -22 -22 -22 -22 -22 -22 -22 -22 -22 -21 -21 -21 -21 -22 -22 -21 -21 -22 -22 -22 -22 -22 -22 -22 -22 -22 -22 -22 -21 -22 -22 -22 -22 -22 -21 -22 -22 -22 -22 -22 -21 -21 -21 -21 -21 -21 -21 -21 -21 -21 -21 -21 -21 -21 -21 -21 -21 -21 -21
-22 -22 -22 -22 -22 -22 -22 -22 -22 -22 -22 -22 -22 -22 -21 -21 -22 -22 -22 -22 -22 -22 -22 -22 -22 -22 -22 -22 -22 -22 -22 -22 -22 -22 -22 -22 -22 -22 -22 -22 -22 -22 -22 -22 -22 -22 -22 -21 -21 -21 -21 -21 -21 -21 -21 -21 -21 -21 -21 -21 -21 -21 -21
-23 -23 -23 -23 -22 -22 -22 -22 -22 -22 -22 -22 -22 -22 -22 -22 -22 -22 -22 -22 -22 -22 -22 -22 -22 -22 -23 -23 -23 -22 -22 -22 -22 -22 -22 -22 -22 -22 -22 -22 -22 -22 -22 -22 -22 -22 -22 -22 -21 -21 -21 -21 -21 -21 -21 -21 -21 -21 -21 -21 -21 -21 -21
Height
5769 5770 5771 5771 5772 5772 5772 5772 5772 5773 5773 5774 5774 5774 5774 5773 5773 5773 5774 5774 5774 5775 5775 5776 5776 5776 5776 5776 5777 5777 5777 5777 5777 5776 5776 5775 5775 5775 5775 5776 5777 5777 5778 5779 5779 5780 5781 5781 5781 5781 5781 5780 5780 5780 5780 5780 5780 5780 5780 5780 5780 5779 5779
5768 5769 5770 5770 5770 5770 5770 5770 5770 5770 5771 5771 5771 5771 5771 5771 5771 5771 5772 5772 5772 5772 5773 5773 5773 5774 5774 5774 5774 5775 5775 5775 5775 5774 5774 5773 5773 5773 5773 5773 5774 5775 5775 5776 5777 5777 5778 5779 5779 5779 5778 5778 5778 5778 5778 5778 5777 5777 5777 5777 5777 5776 5776
5768 5768 5768 5768 5768 5769 5768 5767 5767 5768 5768 5768 5768 5768 5768 5768 5768 5769 5769 5770 5770 5770 5771 5771 5771 5772 5772 5772 5772 5772 5773 5773 5772 5772 5772 5771 5771 5770 5770 5771 5771 5772 5773 5773 5774 5774 5776 5776 5776 5776 5776 5776 5775 5775 5776 5776 5775 5775 5775 5775 5774 5774 5773
5767 5767 5767 5767 5766 5767 5767 5766 5765 5765 5766 5766 5766 5766 5766 5766 5766 5766 5767 5767 5767 5768 5769 5769 5769 5770 5770 5770 5770 5770 5770 5770 5770 5770 5770 5769 5768 5768 5768 5768 5768 5769 5770 5770 5771 5771 5772 5773 5773 5773 5773 5773 5773 5773 5773 5773 5773 5772 5772 5772 5772 5771 5771
5766 5766 5766 5766 5765 5764 5765 5765 5764 5764 5764 5763 5763 5764 5764 5764 5764 5764 5764 5764 5765 5765 5766 5767 5767 5768 5768 5768 5768 5768 5768 5768 5768 5767 5767 5767 5766 5766 5766 5766 5766 5766 5767 5767 5767 5768 5769 5769 5770 5770 5771 5771 5771 5770 5770 5770 5770 5769 5769 5769 5768 5768 5768
5763 5764 5764 5764 5763 5762 5762 5763 5762 5762 5762 5762 5761 5761 5761 5761 5761 5761 5762 5762 5762 5763 5764 5764 5765 5765 5766 5766 5766 5766 5766 5766 5765 5765 5765 5764 5764 5764 5764 5764 5764 5764 5764 5765 5765 5765 5766 5766 5767 5767 5767 5768 5768 5768 5767 5767 5767 5766 5766 5766 5766 5765 5765
5760 5761 5761 5761 5761 5760 5759 5760 5760 5760 5760 5760 5759 5759 5759 5759 5759 5759 5760 5760 5760 5761 5761 5762 5763 5763 5764 5764 5764 5764 5764 5764 5763 5763 5763 5762 5762 5762 5762 5762 5762 5763 5763 5763 5763 5763 5763 5763 5764 5764 5764 5765 5765 5765 5765 5764 5764 5764 5763 5763 5763 5763 5762
5757 5757 5757 5757 5757 5757 5756 5757 5758 5757 5757 5758 5757 5757 5757 5757 5757 5758 5758 5758 5759 5759 5760 5760 5761 5761 5762 5762 5762 5762 5762 5761 5761 5761 5761 5760 5760 5760 5760 5760 5760 5761 5761 5761 5761 5761 5761 5761 5761 5762 5762 5762 5762 5762 5762 5762 5762 5761 5761 5761 5760 5760 5760
5753 5753 5753 5752 5753 5754 5753 5754 5755 5755 5755 5755 5755 5756 5756 5756 5756 5756 5756 5757 5757 5757 5758 5758 5759 5759 5760 5760 5760 5760 5760 5759 5759 5759 5759 5759 5759 5759 5759 5759 5759 5759 5759 5759 5760 5760 5760 5760 5760 5760 5760 5760 5760 5760 5760 5760 5760 5759 5759 5759 5759 5758 5758
5749 5749 5750 5749 5748 5750 5751 5751 5751 5752 5752 5753 5753 5754 5754 5754 5754 5754 5754 5755 5755 5756 5756 5757 5757 5757 5757 5758 5758 5758 5758 5758 5758 5758 5758 5758 5757 5757 5757 5757 5757 5757 5757 5758 5758 5758 5759 5759 5759 5759 5759 5759 5759 5759 5759 5759 5759 5759 5758 5758 5758 5757 5757
5746 5747 5747 5745 5744 5746 5747 5748 5748 5749 5750 5750 5751 5752 5752 5752 5752 5752 5753 5753 5754 5754 5755 5755 5755 5755 5755 5755 5756 5756 5756 5756 5756 5756 5756 5756 5756 5756 5756 5756 5756 5756 5756 5756 5756 5756 5757 5757 5757 5758 5758 5758 5758 5758 5758 5758 5758 5758 5758 5757 5757 5757 5757
5744 5744 5744 5743 5743 5743 5744 5745 5745 5747 5747 5748 5749 5750 5750 5751 5751 5751 5751 5752 5752 5753 5753 5753 5753 5753 5753 5753 5754 5754 5754 5754 5754 5754 5754 5754 5754 5754 5754 5754 5754 5754 5754 5754 5754 5755 5755 5755 5755 5756 5756 5756 5756 5756 5756 5756 5756 5756 5756 5756 5756 5756 5756
5743 5743 5743 5742 5742 5741 5742 5743 5744 5745 5746 5746 5747 5747 5748 5749 5749 5750 5750 5751 5751 5751 5751 5751 5751 5751 5751 5752 5752 5752 5752 5753 5753 5753 5752 5752 5752 5752 5752 5752 5752 5753 5753 5753 5753 5753 5753 5753 5753 5754 5754 5754 5754 5754 5755 5755 5755 5755 5755 5755 5755 5755 5754
5741 5741 5742 5742 5741 5741 5741 5742 5742 5743 5744 5744 5745 5746 5746 5747 5747 5748 5748 5749 5749 5749 5750 5750 5750 5750 5750 5750 5750 5750 5750 5751 5751 5751 5751 5751 5750 5750 5751 5751 5751 5751 5751 5751 5751 5751 5752 5752 5752 5752 5752 5752 5753 5753 5753 5753 5753 5753 5753 5753 5753 5753 5753
5739 5739 5739 5740 5740 5740 5740 5740 5740 5741 5741 5742 5743 5744 5744 5745 5745 5745 5746 5746 5747 5747 5747 5747 5747 5747 5748 5748 5748 5748 5748 5749 5749 5749 5749 5749 5749 5749 5749 5749 5749 5749 5750 5750 5750 5750 5750 5750 5750 5750 5751 5751 5751 5751 5751 5751 5752 5752 5752 5752 5751 5751 5751
5739 5738 5738 5738 5738 5738 5738 5739 5739 5739 5739 5740 5741 5741 5742 5742 5742 5743 5743 5744 5744 5744 5744 5744 5745 5745 5745 5746 5746 5746 5746 5747 5747 5747 5747 5747 5747 5747 5748 5748 5748 5748 5748 5748 5748 5749 5749 5749 5749 5749 5749 5749 5749 5749 5749 5749 5749 5750 5750 5750 5750 5749 5749
5737 5737 5736 5736 5735 5736 5736 5736 5737 5737 5738 5738 5738 5738 5739 5739 5740 5740 5740 5741 5741 5742 5742 5742 5743 5743 5743 5743 5744 5744 5744 5744 5744 5745 5745 5746 5746 5746 5746 5746 5746 5746 5746 5746 5746 5747 5747 5746 5746 5747 5747 5747 5747 5747 5746 5746 5746 5746 5747 5747 5747 5747 5747
5734 5735 5734 5734 5733 5733 5734 5734 5734 5735 5735 5735 5735 5735 5735 5736 5736 5737 5737 5737 5738 5739 5739 5740 5740 5740 5741 5741 5742 5741 5741 5741 5742 5742 5743 5743 5744 5744 5744 5744 5744 5744 5744 5744 5744 5744 5744 5744 5744 5744 5744 5744 5744 5744 5744 5744 5744 5743 5743 5743 5743 5743 5743
5731 5732 5732 5732 5731 5732 5732 5732 5732 5732 5732 5732 5732 5732 5731 5732 5733 5733 5733 5734 5734 5735 5736 5736 5737 5737 5737 5738 5739 5739 5739 5739 5739 5739 5740 5741 5741 5741 5742 5742 5742 5741 5741 5742 5742 5742 5742 5742 5742 5742 5742 5742 5742 5742 5742 5741 5741 5741 5740 5740 5740 5740 5739
5728 5729 5729 5729 5729 5729 5729 5729 5729 5729 5728 5728 5729 5728 5728 5728 5729 5730 5730 5730 5731 5732 5733 5733 5733 5733 5734 5734 5735 5735 5736 5736 5736 5736 5736 5737 5737 5738 5738 5739 5739 5739 5739 5739 5739 5739 5739 5739 5739 5740 5739 5739 5739 5739 5739 5738 5738 5738 5737 5736 5736 5736 5736
5725 5725 5725 5726 5726 5726 5726 5725 5725 5724 5724 5724 5724 5724 5724 5725 5726 5727 5727 5727 5727 5728 5729 5729 5729 5730 5730 5730 5730 5731 5732 5732 5732 5732 5732 5733 5733 5734 5734 5735 5735 5735 5735 5736 5736 5736 5736 5736 5736 5736 5736 5736 5736 5736 5735 5735 5734 5734 5733 5733 5732 5732 5732
5722 5722 5722 5723 5723 5723 5722 5721 5720 5720 5720 5720 5720 5720 5720 5721 5722 5723 5723 5724 5724 5724 5724 5725 5725 5725 5726 5727 5727 5727 5727 5728 5728 5728 5728 5729 5729 5730 5730 5731 5731 5732 5732 5732 5732 5732 5732 5732 5732 5732 5732 5732 5732 5732 5731 5731 5730 5730 5729 5728 5728 5729 5729
5718 5718 5719 5720 5720 5720 5719 5718 5717 5717 5717 5717 5716 5717 5717 5718 5719 5719 5719 5719 5720 5720 5721 5722 5722 5721 5722 5723 5723 5723 5724 5724 5724 5724 5725 5725 5726 5726 5727 5727 5727 5727 5728 5728 5728 5728 5728 5728 5727 5727 5727 5727 5727 5727 5727 5726 5726 5725 5724 5723 5723 5724 5724
5713 5713 5714 5715 5716 5716 5715 5714 5713 5713 5714 5713 5713 5714 5714 5715 5715 5715 5714 5714 5715 5716 5717 5719 5718 5718 5719 5719 5720 5720 5720 5721 5721 5721 5722 5722 5722 5723 5723 5723 5723 5723 5723 5723 5723 5723 5722 5722 5722 5722 5722 5722 5722 5721 5721 5721 5720 5720 5719 5718 5718 5717 5718
5708 5708 5708 5709 5710 5710 5710 5710 5709 5709 5709 5710 5710 5711 5711 5711 5712 5712 5711 5710 5711 5712 5713 5714 5714 5715 5715 5716 5717 5717 5717 5718 5718 5718 5718 5719 5719 5719 5719 5719 5719 5719 5718 5718 5718 5717 5717 5717 5717 5717 5717 5717 5717 5716 5715 5715 5715 5714 5713 5712 5712 5711 5711
5701 5702 5702 5703 5704 5704 5704 5704 5704 5705 5705 5706 5706 5706 5707 5707 5708 5708 5708 5708 5708 5708 5708 5709 5709 5710 5711 5712 5713 5713 5713 5713 5714 5714 5714 5715 5715 5715 5715 5715 5715 5714 5714 5714 5713 5713 5712 5712 5711 5711 5711 5711 5711 5710 5710 5709 5708 5708 5707 5706 5705 5705 5705
5694 5695 5696 5697 5697 5698 5698 5698 5699 5700 5701 5701 5702 5702 5702 5703 5703 5703 5703 5703 5704 5703 5703 5704 5704 5704 5705 5706 5707 5708 5708 5708 5709 5709 5709 5710 5710 5711 5710 5710 5710 5709 5709 5709 5708 5708 5707 5707 5706 5705 5705 5705 5705 5704 5703 5703 5702 5701 5701 5700 5699 5698 5697
5687 5688 5689 5690 5691 5691 5692 5692 5693 5694 5695 5696 5696 5696 5696 5696 5697 5697 5697 5698 5698 5699 5699 5699 5699 5699 5699 5699 5700 5701 5702 5702 5703 5704 5704 5704 5705 5705 5705 5705 5704 5704 5704 5704 5703 5703 5702 5701 5701 5700 5699 5699 5698 5698 5697 5696 5695 5694 5694 5693 5692 5691 5690
5681 5681 5682 5682 5683 5685 5686 5686 5687 5688 5689 5689 5689 5690 5690 5690 5691 5691 5692 5692 5693 5694 5694 5695 5694 5695 5695 5694 5694 5695 5695 5696 5697 5698 5698 5699 5699 5699 5699 5699 5699 5699 5699 5699 5698 5697 5697 5696 5695 5694 5693 5692 5692 5691 5690 5689 5688 5687 5686 5685 5684 5683 5682
5673 5674 5675 5676 5676 5678 5679 5680 5681 5682 5683 5683 5683 5683 5683 5684 5684 5685 5686 5687 5688 5689 5689 5689 5689 5690 5690 5690 5690 5691 5691 5692 5692 5693 5693 5694 5694 5694 5694 5694 5694 5694 5693 5693 5692 5692 5691 5690 5689 5688 5687 5686 5685 5685 5683 5682 5681 5680 5679 5678 5677 5676 5674
5666 5667 5668 5669 5670 5671 5672 5673 5673 5675 5676 5677 5678 5679 5678 5677 5678 5680 5681 5681 5682 5683 5683 5683 5683 5684 5685 5685 5686 5686 5687 5687 5687 5688 5688 5688 5688 5689 5689 5689 5688 5688 5687 5687 5687 5686 5685 5684 5683 5682 5681 5680 5679 5678 5677 5676 5674 5673 5672 5670 5669 5668 5667
5659 5660 5661 5662 5663 5664 5665 5666 5667 5668 5669 5671 5672 5673 5672 5671 5672 5675 5677 5677 5674 5675 5676 5677 5678 5678 5679 5679 5680 5681 5681 5682 5682 5682 5682 5682 5682 5682 5682 5682 5682 5682 5681 5681 5680 5680 5679 5678 5676 5676 5675 5673 5672 5671 5670 5669 5667 5666 5664 5663 5662 5660 5659
5651 5653 5654 5654 5655 5657 5658 5659 5660 5661 5662 5664 5665 5665 5665 5665 5665 5668 5672 5671 5668 5668 5670 5671 5672 5672 5672 5673 5674 5675 5676 5676 5676 5676 5676 5676 5676 5676 5676 5676 5675 5675 5675 5674 5674 5673 5672 5671 5669 5668 5667 5666 5665 5664 5663 5662 5660 5659 5657 5656 5654 5653 5651
5642 5644 5646 5647 5648 5649 5651 5652 5653 5654 5655 5656 5658 5658 5659 5659 5660 5661 5663 5664 5663 5663 5664 5664 5665 5665 5666 5667 5668 5669 5670 5670 5670 5670 5670 5670 5670 5669 5669 5669 5669 5669 5669 5668 5667 5666 5665 5664 5662 5661 5660 5659 5658 5657 5655 5654 5653 5651 5650 5648 5647 5645 5644
5633 5635 5637 5639 5640 5642 5643 5644 5646 5647 5648 5649 5651 5653 5655 5654 5654 5654 5655 5656 5657 5657 5658 5658 5658 5659 5660 5661 5662 5663 5664 5664 5664 5664 5664 5664 5663 5663 5663 5663 5663 5663 5662 5661 5661 5660 5658 5657 5656 5654 5653 5652 5650 5649 5648 5646 5645 5643 5642 5641 5639 5638 5637
5624 5626 5627 5629 5631 5633 5635 5637 5638 5639 5641 5642 5644 5648 5650 5648 5647 5647 5648 5649 5650 5650 5651 5651 5652 5653 5654 5655 5655 5656 5657 5657 5658 5658 5658 5657 5657 5657 5657 5656 5656 5656 5655 5654 5653 5652 5651 5650 5649 5647 5646 5645 5643 5642 5640 5639 5637 5636 5635 5633 5632 5631 5629
5616 5617 5618 5620 5621 5623 5625 5628 5629 5631 5633 5635 5636 5639 5641 5641 5640 5640 5640 5641 5643 5643 5644 5645 5646 5647 5647 5648 5648 5649 5650 5651 5651 5651 5651 5650 5650 5650 5650 5649 5649 5649 5648 5647 5646 5645 5644 5642 5641 5640 5639 5637 5636 5634 5633 5631 5630 5629 5627 5626 5625 5624 5622
Wind_Speed
12 11 10 9 9 10 13 15 16 16 16 14 12 11 11 12 13 14 15 17 17 17 17 17 18 19 20 20 21 21 22 22 23 23 23 23 23 24 24 24 23 23 23 22 23 23 21 20 21 22 22 23 23 23 23 23 24 24 24 24 24 25 26
12 11 11 12 12 12 13 15 15 15 15 14 13 12 12 13 14 15 17 18 19 19 19 19 20 20 21 21 21 22 22 22 23 23 23 23 23 23 23 23 23 22 22 22 22 22 22 22 23 23 24 24 24 24 25 25 25 25 25 24 25 26 27
13 13 14 16 15 14 14 14 13 13 13 13 13 13 13 14 15 16 17 18 19 19 20 21 21 21 22 22 22 23 23 23 23 23 23 23 23 23 22 22 21 21 20 20 21 21 22 22 22 22 22 24 24 25 25 26 26 26 26 25 25 26 26
15 15 16 18 18 16 14 13 12 12 13 14 14 15 15 15 15 16 16 17 18 19 20 21 22 22 23 23 24 24 24 24 23 23 22 22 22 21 21 20 19 19 18 18 18 19 19 20 20 20 21 22 23 24 25 25 25 26 26 26 25 25 26
16 16 16 17 19 19 17 14 12 12 13 14 14 15 15 16 16 16 16 17 17 18 19 20 22 23 24 24 25 25 25 24 23 22 21 20 19 19 18 17 17 16 15 15 15 16 16 16 17 18 19 20 21 23 23 23 24 25 25 25 25 25 25
19 18 18 17 18 21 19 14 12 12 13 14 14 14 15 15 15 15 15 16 16 17 19 20 21 22 23 24 24 25 25 24 23 22 20 18 17 16 15 15 14 13 13 13 13 13 13 13 14 15 16 17 18 19 20 20 20 21 23 23 24 24 24
21 21 21 20 20 21 22 17 14 13 13 13 14 14 15 15 15 15 15 15 16 17 18 19 20 21 22 23 23 24 24 23 23 22 20 19 17 16 15 14 13 12 11 10 10 10 10 10 10 11 12 12 13 14 15 15 15 17 18 20 20 21 22
21 22 24 25 24 23 24 20 16 16 15 15 15 15 15 15 15 15 15 15 15 16 18 19 20 21 22 22 23 23 23 22 22 21 20 18 17 16 15 14 13 12 11 10 9 8 9 9 8 9 9 9 9 10 11 11 11 12 13 14 15 16 17
20 22 24 26 26 25 25 23 20 19 18 17 16 16 16 16 15 15 15 15 15 16 17 18 19 20 21 21 21 21 21 21 20 20 19 18 17 16 15 14 14 13 12 11 10 10 9 9 9 9 9 9 9 9 9 10 10 10 10 11 11 11 12
21 22 23 27 30 27 26 26 25 22 20 18 16 16 17 16 16 15 15 14 14 15 15 16 17 18 18 19 19 19 19 19 19 18 18 18 17 16 16 15 15 14 13 13 12 11 10 9 9 9 9 9 9 9 10 10 10 10 10 10 10 9 9
19 19 18 21 24 24 25 28 28 25 22 18 16 17 17 16 16 15 15 14 14 14 14 15 16 16 17 17 17 17 17 17 17 17 17 17 17 17 16 16 15 14 14 13 13 12 11 10 9 9 9 9 9 9 9 10 11 11 11 11 11 11 10
16 14 13 14 13 16 22 26 28 26 21 18 18 19 19 18 17 16 15 15 15 15 15 16 16 16 17 17 17 17 17 17 17 17 17 17 17 17 17 16 16 15 14 13 13 13 13 12 11 11 10 10 10 10 10 10 10 11 11 11 12 12 11
18 15 13 11 10 11 15 18 19 19 18 17 18 20 20 19 18 18 17 17 17 17 17 18 18 18 18 18 18 19 18 18 18 18 18 18 18 18 18 17 16 15 14 14 13 13 13 13 13 12 12 11 11 10 11 10 11 11 12 12 12 13 13
21 19 16 14 12 11 11 13 15 15 16 17 17 18 19 19 19 19 19 19 19 19 18 18 18 19 19 19 20 20 19 19 19 18 18 18 17 17 17 16 15 14 14 13 13 13 13 14 14 14 14 13 13 12 11 11 11 11 12 12 13 14 14
20 20 18 16 13 10 11 14 15 16 17 17 17 18 18 19 19 20 20 20 20 20 18 18 17 18 18 18 19 19 19 19 18 18 17 17 16 16 15 15 14 13 13 13 12 13 13 14 15 15 15 15 15 15 14 13 13 12 12 13 14 14 15
20 19 17 15 12 11 12 14 15 17 18 19 19 20 19 19 20 21 21 21 20 20 19 18 17 17 17 17 18 18 18 17 17 17 17 16 15 15 14 14 14 13 13 13 12 12 13 14 15 15 16 16 16 17 17 17 16 15 15 15 15 16 16
19 18 17 16 14 14 14 15 17 17 18 19 20 21 20 19 20 21 22 21 20 20 20 19 18 19 19 19 19 18 18 18 18 18 18 17 16 15 15 15 15 14 14 13 13 13 14 15 16 16 15 15 16 17 18 19 19 19 20 20 19 19 19
19 17 17 18 17 16 16 17 19 19 20 21 21 21 20 19 18 19 21 21 21 20 20 19 20 21 22 21 21 20 20 19 19 20 20 20 19 18 18 18 18 17 16 15 14 14 14 15 17 17 17 17 17 17 18 19 20 21 22 23 23 23 23
19 18 18 18 17 16 16 18 20 21 22 22 22 21 20 19 18 19 21 22 22 21 21 21 22 23 23 23 23 23 22 22 21 21 21 22 21 21 20 20 20 20 19 19 17 16 14 14 15 17 18 18 19 19 20 21 22 23 24 24 25 25 26
18 18 18 18 17 17 18 19 21 23 24 22 21 22 22 21 21 20 22 24 24 22 22 24 24 24 25 25 25 25 24 24 24 24 24 24 24 25 24 24 23 23 22 21 20 19 18 17 17 18 20 21 22 23 24 25 26 27 27 27 27 27 27
21 21 21 20 20 21 22 23 24 25 26 24 22 23 25 24 23 23 23 24 24 24 25 27 27 26 26 26 27 27 26 26 26 26 26 26 26 27 28 28 27 26 25 24 23 22 21 21 22 23 24 25 26 28 29 30 31 31 31 31 31 31 30
26 26 25 23 23 24 25 26 26 26 26 25 25 25 26 26 24 23 22 23 24 25 26 27 28 29 29 28 28 29 29 29 29 29 29 28 28 28 29 29 28 27 27 26 25 24 24 25 27 28 28 29 29 30 31 32 33 34 34 35 35 34 34
31 31 29 26 25 25 25 25 26 25 25 26 27 27 26 25 22 21 24 27 28 27 26 27 30 32 32 32 31 32 33 34 34 33 33 32 31 30 29 28 28 27 27 27 27 27 28 29 30 31 32 32 33 33 33 34 35 36 37 38 39 38 38
35 35 34 30 28 27 27 27 27 26 26 28 29 28 26 25 23 24 29 33 31 28 27 29 32 33 30 30 31 32 34 35 35 34 32 31 30 30 31 30 29 28 28 29 29 30 31 32 32 33 34 35 36 36 37 38 38 39 40 42 43 43 43
38 38 38 36 34 33 33 31 30 28 28 29 30 30 30 30 29 28 31 34 34 32 31 30 33 32 29 28 28 28 29 30 30 30 29 29 30 31 32 32 31 31 30 31 32 33 34 35 35 36 37 37 37 38 39 40 40 41 42 43 44 44 44
41 41 41 40 39 39 38 36 34 32 31 31 33 34 34 34 35 35 36 37 38 39 37 34 34 35 35 34 34 33 33 32 31 30 30 31 32 34 34 34 34 33 33 33 34 34 35 36 37 37 38 38 38 39 39 40 40 41 42 43 44 44 44
44 44 44 44 43 43 42 41 39 36 33 33 35 37 38 38 38 38 38 37 38 40 40 39 38 38 38 37 37 38 38 36 33 32 31 32 34 35 35 35 34 34 34 34 34 34 35 35 36 37 37 38 38 39 40 40 41 42 43 43 44 45 45
45 45 46 46 45 46 45 44 43 41 38 37 37 40 42 42 41 39 38 37 37 38 39 39 40 40 39 38 36 35 34 33 31 31 30 30 32 33 34 34 35 35 35 35 35 34 34 34 35 36 37 38 39 40 41 42 43 44 44 44 45 46 46
45 45 45 46 46 46 46 45 45 44 44 44 44 44 43 42 40 39 38 38 37 37 37 38 38 39 39 39 38 35 33 31 30 30 30 30 31 32 34 35 37 37 38 37 36 36 36 36 37 37 39 40 41 42 43 44 44 45 45 45 46 47 47
44 44 44 45 45 45 45 45 46 46 45 44 44 45 46 45 43 42 41 40 40 40 39 39 38 38 38 39 39 38 37 36 35 34 34 35 35 36 36 36 36 36 37 37 37 37 38 39 39 40 41 41 42 43 44 45 45 46 46 47 47 47 48
47 45 45 44 44 44 43 45 47 47 46 43 40 41 44 46 46 46 45 46 45 44 43 42 41 41 41 41 41 41 40 40 39 39 39 40 40 40 39 38 37 36 35 35 36 37 38 39 40 41 42 43 43 44 44 45 46 46 47 47 48 48 48
50 48 47 45 45 44 43 44 46 47 47 46 43 41 41 42 44 44 43 44 46 45 46 45 45 44 45 45 44 44 43 43 43 42 43 43 43 43 42 40 39 38 37 37 37 38 38 39 40 41 42 43 44 45 45 46 46 47 47 47 47 47 47
52 51 49 48 47 45 44 44 46 47 47 48 48 48 47 47 46 43 42 44 48 48 46 45 46 46 47 46 45 45 44 44 43 43 43 43 43 43 43 42 41 41 41 41 41 42 42 42 43 44 44 45 45 45 46 46 47 47 47 48 47 47 47
52 50 49 49 49 48 46 44 45 46 47 47 47 48 49 49 48 44 43 46 49 47 45 44 45 46 45 44 43 43 43 43 43 43 43 42 42 42 42 42 42 42 43 43 44 45 46 46 46 46 47 47 46 46 46 47 47 47 47 47 47 46 46
53 51 50 49 49 50 49 48 48 47 47 46 45 43 43 45 46 45 44 43 43 44 43 43 44 45 44 43 44 44 44 44 44 44 43 43 43 43 43 43 43 43 44 47 48 49 49 49 48 48 48 47 47 47 47 47 47 47 47 46 45 45 46
53 52 51 50 50 50 51 52 52 51 51 49 47 44 42 42 44 45 44 42 42 45 46 45 45 46 46 46 46 46 46 46 45 45 45 44 44 45 44 43 43 45 48 51 51 51 51 50 49 48 47 47 46 46 47 47 47 47 46 45 45 45 45
56 54 53 51 50 50 50 52 53 54 54 53 52 50 48 47 47 48 47 45 44 46 47 46 45 45 45 47 48 48 48 48 48 47 46 46 45 45 45 45 46 50 53 53 51 51 50 50 49 47 46 46 46 47 47 47 46 46 45 45 44 44 44
Wind_Direction
251 253 267 282 293 288 282 281 282 286 289 288 282 271 263 257 253 252 250 249 248 245 244 243 243 244 245 246 248 250 252 254 256 258 260 263 265 267 269 271 273 275 277 276 277 279 276 272 273 273 271 270 271 271 272 273 273 274 275 275 274 273 273
255 253 266 280 290 293 290 289 287 286 284 282 280 274 266 256 248 245 243 244 245 245 245 245 246 247 248 249 250 252 253 255 257 258 260 261 263 266 268 270 271 272 273 274 275 276 275 275 275 275 273 273 272 272 274 276 277 277 277 277 277 276 276
263 260 272 281 287 290 289 289 288 284 278 273 271 268 264 258 251 245 241 241 243 245 246 248 249 250 252 253 254 255 257 258 259 260 261 262 264 266 268 269 271 272 272 272 272 273 275 276 276 274 273 273 273 272 273 275 276 276 276 277 277 277 277
262 261 269 278 287 291 286 286 285 279 271 265 262 261 258 256 253 249 245 244 245 246 248 250 252 254 256 257 257 257 258 258 259 259 260 261 263 266 268 270 272 275 276 276 275 274 274 276 277 275 273 273 274 274 274 274 274 275 275 275 276 276 276
260 259 263 272 285 291 289 284 280 273 270 265 260 258 256 254 253 250 249 248 248 249 251 252 253 255 256 257 258 258 258 257 257 257 257 258 260 263 266 271 274 277 280 282 281 280 280 281 281 280 278 276 277 278 277 276 275 274 275 275 276 275 275
258 257 258 265 279 287 286 280 273 269 269 269 263 257 255 254 253 252 251 252 252 253 253 253 254 255 255 256 258 258 259 258 257 256 255 255 256 258 261 266 271 276 280 282 284 285 286 288 289 288 286 283 283 284 283 281 279 277 276 276 276 275 274
257 257 258 264 270 278 280 275 266 262 263 267 266 260 256 256 255 255 254 254 255 255 255 255 255 254 254 255 255 257 258 258 257 255 254 253 253 254 256 259 263 268 271 274 278 280 283 286 288 287 286 285 286 287 288 288 286 282 280 279 278 277 275
264 262 263 266 265 267 273 273 264 258 258 262 264 261 256 254 254 254 254 253 254 255 256 257 256 256 255 254 253 253 254 255 255 255 255 254 253 253 253 254 255 258 259 260 261 262 265 267 270 272 274 279 282 285 289 293 293 289 285 284 283 281 278
269 265 264 266 263 260 265 269 265 257 256 258 259 258 255 252 250 250 250 251 252 254 255 256 256 255 254 253 253 252 253 254 255 256 257 257 258 258 258 258 257 256 255 254 253 254 258 262 265 268 271 276 280 283 287 292 297 298 295 291 291 289 284
272 270 272 271 264 257 256 262 263 255 251 251 253 256 255 252 249 248 248 249 250 252 254 254 254 254 254 253 252 252 252 253 254 256 258 260 261 262 262 262 260 258 256 254 254 255 259 265 271 276 279 282 285 286 289 291 294 296 297 296 296 296 293
279 273 281 283 268 252 246 253 256 249 242 243 248 253 255 252 251 249 248 247 248 250 252 253 253 253 252 251 251 250 250 250 252 254 256 259 261 261 261 261 260 260 259 258 257 257 258 261 265 271 277 282 286 287 289 291 292 293 295 296 296 297 297
295 281 282 295 280 249 240 246 247 241 237 240 246 251 251 251 250 249 249 248 248 249 250 251 252 252 252 252 252 251 250 250 250 251 254 255 257 259 260 261 261 261 262 263 263 263 262 262 262 263 267 272 277 282 283 284 286 289 290 291 292 293 292
299 298 290 298 300 271 250 245 243 240 240 243 246 249 249 250 251 251 251 251 251 252 252 253 254 256 257 257 256 256 255 255 256 256 257 258 258 259 260 261 262 262 263 265 266 267 267 267 266 265 264 265 267 272 276 278 279 281 282 283 283 284 284
294 298 295 298 309 303 278 261 250 245 245 242 242 245 249 252 255 255 255 253 252 252 254 258 261 263 264 264 262 261 260 259 259 259 259 260 261 261 262 262 262 263 264 266 268 269 270 271 271 271 271 271 270 270 271 273 275 277 279 281 281 281 281
293 295 293 292 295 292 279 268 255 246 244 241 239 242 247 254 257 257 256 252 249 250 252 255 258 262 265 266 265 264 263 262 259 257 257 258 259 260 260 259 258 260 262 265 268 270 272 273 273 275 276 277 276 275 274 273 272 272 273 276 278 279 280
288 288 285 283 277 270 268 262 255 252 252 252 251 249 249 252 256 257 256 252 248 248 248 248 252 256 259 260 261 261 262 261 259 256 254 254 254 255 253 252 252 254 258 262 265 268 270 273 274 275 276 277 277 277 277 277 275 273 271 271 271 272 273
279 275 272 273 270 267 265 258 253 256 260 260 259 256 252 250 252 256 257 255 252 250 250 249 249 250 253 255 255 255 256 256 256 256 256 255 255 253 249 247 247 251 258 263 267 269 269 269 269 270 271 273 275 277 278 278 277 276 274 273 272 271 270
270 266 268 270 267 265 262 256 255 258 261 261 259 257 254 250 249 253 256 256 254 253 254 253 251 251 252 253 253 254 254 252 251 253 257 259 259 256 252 249 248 251 257 264 269 272 274 272 270 270 271 273 277 280 282 282 282 281 280 279 277 276 274
266 266 269 268 265 262 261 260 262 263 263 261 260 260 257 252 250 253 257 259 256 255 256 255 254 254 254 252 253 255 254 251 249 250 254 257 259 258 256 254 254 257 261 265 269 272 274 276 276 275 277 279 282 284 286 287 288 288 287 286 284 282 280
264 267 268 266 262 262 264 266 267 266 263 260 259 260 258 255 255 256 259 259 258 256 258 258 258 259 257 255 254 254 253 253 251 248 249 254 258 260 260 258 258 260 263 265 267 269 271 272 273 274 275 277 279 280 281 282 284 285 285 285 284 284 284
263 265 266 264 263 263 263 264 264 263 260 254 249 250 253 255 256 257 259 262 264 263 261 260 261 261 260 258 256 253 251 251 251 249 251 255 259 260 260 259 258 259 261 263 266 268 271 272 273 273 273 274 275 276 277 278 279 279 279 278 278 279 280
264 267 266 265 265 265 264 261 257 256 256 251 244 244 249 252 253 256 258 261 264 266 267 266 264 262 259 255 253 251 251 253 254 253 255 259 260 260 259 258 258 258 259 262 265 269 273 278 280 280 280 280 279 278 278 278 278 278 277 276 276 276 277
266 268 267 265 263 263 264 261 255 252 253 251 244 244 250 251 249 253 258 260 260 262 267 268 266 264 259 252 247 247 250 255 257 257 259 261 261 258 258 259 260 261 262 264 266 270 276 282 285 286 286 285 284 283 281 280 278 278 278 278 278 278 277
266 267 267 264 258 257 260 259 256 256 257 254 247 247 250 250 247 250 256 262 264 264 262 260 259 262 261 251 244 246 250 254 256 257 258 259 259 258 260 263 265 268 270 271 273 275 279 283 285 285 284 284 284 284 283 281 280 279 278 279 279 279 278
265 266 266 264 261 260 259 257 257 258 260 256 250 248 249 251 252 253 256 262 267 268 266 262 259 263 264 256 248 248 251 252 254 256 256 256 257 259 262 266 269 272 275 277 279 281 282 284 285 284 283 282 282 281 281 280 280 279 279 279 278 278 278
266 265 265 265 265 264 262 260 258 258 257 255 250 247 248 253 256 256 256 260 265 267 269 269 266 266 267 265 262 262 263 264 265 265 265 264 262 262 264 267 271 275 278 279 281 281 282 283 283 283 283 282 282 281 280 280 280 279 279 279 279 280 279
268 267 265 265 264 263 263 262 260 258 256 254 251 248 248 253 258 258 257 257 260 263 266 268 270 271 271 271 270 270 271 274 275 274 272 270 267 266 267 270 273 276 278 278 279 279 280 282 283 284 285 285 284 284 283 283 282 281 281 281 281 281 281
270 267 265 264 262 261 261 260 259 257 255 253 251 249 249 254 258 258 256 256 257 258 262 266 269 272 275 277 278 277 275 275 275 275 273 271 270 270 272 273 274 274 275 275 276 278 279 282 284 286 287 288 288 287 286 285 284 284 283 283 282 282 282
269 266 263 261 259 258 258 257 257 256 255 254 252 250 251 252 253 253 253 255 256 258 261 264 266 268 272 276 278 279 278 276 273 272 270 270 273 275 275 275 273 272 272 272 274 277 280 283 286 288 289 290 290 290 289 288 287 286 285 284 284 283 283
269 267 264 261 258 257 255 255 254 254 255 256 257 256 254 251 250 250 252 254 257 260 262 262 263 266 269 271 272 274 275 274 273 271 269 270 273 276 276 275 273 273 272 273 276 279 283 286 288 290 290 291 291 291 290 289 288 287 287 286 285 284 284
268 267 266 263 260 258 255 252 252 252 251 251 256 261 259 255 253 254 256 258 260 260 259 259 263 267 269 269 269 269 269 270 271 271 270 270 272 274 276 275 274 274 275 278 281 284 287 289 291 292 292 292 292 291 291 290 289 288 287 286 285 284 283
265 264 264 263 262 259 255 252 251 251 249 247 247 250 252 254 255 255 257 261 262 259 259 261 264 267 269 270 269 268 268 268 269 270 271 271 272 274 275 275 275 276 279 282 285 288 291 292 294 295 295 294 293 292 291 291 290 289 288 286 285 283 282
264 262 261 261 261 260 258 255 253 253 252 248 245 245 247 252 255 255 254 255 257 258 260 262 265 267 269 269 269 269 269 269 269 270 270 271 273 274 275 277 278 280 282 285 287 289 292 295 297 298 298 296 294 293 292 291 289 288 287 285 284 283 282
266 263 260 259 259 259 258 256 254 253 252 250 248 248 249 252 254 253 253 254 256 258 261 265 267 268 267 267 268 269 269 269 269 270 271 272 274 275 277 278 280 282 284 287 289 291 294 297 298 299 299 297 294 292 291 290 289 287 286 284 283 282 281
269 267 264 259 257 256 255 254 254 252 250 249 249 249 252 256 256 254 253 256 257 259 261 265 267 268 268 268 269 270 270 270 270 271 272 274 276 277 278 280 281 284 288 290 292 294 295 297 298 298 297 295 293 291 290 289 288 287 285 284 282 282 282
268 268 267 264 260 257 254 253 253 253 252 251 250 247 248 253 256 256 255 255 256 259 261 263 266 269 271 271 270 271 271 271 271 272 273 275 277 277 278 279 282 288 292 293 294 294 295 296 296 295 294 292 291 289 288 287 286 285 284 282 281 281 282
267 267 267 266 264 261 258 255 254 254 253 253 253 250 247 246 250 253 254 255 256 258 260 262 264 268 270 270 271 271 272 272 273 274 276 278 278 277 277 277 281 290 295 295 295 295 295 295 294 293 292 290 288 287 286 285 284 283 282 281 281 281 283